When you browse on this site, cookies collect data to enhance your experience and personalize the content and advertising you see.
Visit our Privacy Policy to learn more. By continuing to use the site, you agree to this use of cookies and data.

Hourly Weather Kankan

Today, 22 September, Tuesday

Time Temperature Precipitation Wind Pressure Humidity
00:00 +19°C° 0 mm 0 mps 685 mmHg 88%
01:00 +19°C° 0 mm 0 mps 685 mmHg 86%
02:00 +19°C° 0 mm 0 mps 685 mmHg 87%
03:00 +19°C° 0 mm 0 mps 685 mmHg 87%
04:00 +21°C° 0 mm 1 mps 684 mmHg 88%
05:00 +21°C° 0 mm 1 mps 685 mmHg 88%
06:00 +21°C° 0 mm 1 mps 685 mmHg 88%
07:00 +21°C° 0 mm 1 mps 685 mmHg 87%
08:00 +23°C° 0 mm 1 mps 686 mmHg 78%
09:00 +26°C° 0 mm 1 mps 687 mmHg 69%
10:00 +28°C° 0 mm 1 mps 687 mmHg 60%
11:00 +29°C° 0 mm 2 mps 687 mmHg 56%
12:00 +30°C° 0 mm 2 mps 687 mmHg 52%
13:00 +31°C° 0 mm 2 mps 686 mmHg 48%
14:00 +31°C° 0 mm 2 mps 686 mmHg 50%
15:00 +31°C° 0 mm 2 mps 685 mmHg 52%
16:00 +30°C° 0 mm 2 mps 684 mmHg 53%
17:00 +28°C° 0.1 mm 2 mps 684 mmHg 60%
18:00 +26°C° 0.1 mm 1 mps 684 mmHg 67%
19:00 +23°C° 0.1 mm 0 mps 684 mmHg 73%
20:00 +22°C° 0.3 mm 0 mps 684 mmHg 77%
21:00 +21°C° 0.3 mm 0 mps 685 mmHg 80%
22:00 +23°C° 0.3 mm 1 mps 685 mmHg 84%
23:00 +23°C° 0 mm 1 mps 685 mmHg 85%

Tomorrow, 23 September, Wednesday

Time Temperature Precipitation Wind Pressure Humidity
00:00 +22°C° 0 mm 1 mps 685 mmHg 86%
01:00 +22°C° 0 mm 1 mps 685 mmHg 87%
02:00 +22°C° 0 mm 1 mps 684 mmHg 86%
03:00 +22°C° 0 mm 1 mps 684 mmHg 85%
04:00 +22°C° 0 mm 1 mps 684 mmHg 84%
05:00 +22°C° 0 mm 1 mps 684 mmHg 83%
06:00 +22°C° 0 mm 1 mps 685 mmHg 83%
07:00 +22°C° 0 mm 1 mps 685 mmHg 82%
08:00 +25°C° 0 mm 1 mps 686 mmHg 74%
09:00 +27°C° 0 mm 1 mps 687 mmHg 66%
10:00 +30°C° 0 mm 1 mps 687 mmHg 58%
11:00 +31°C° 0 mm 1 mps 687 mmHg 53%
12:00 +32°C° 0 mm 2 mps 687 mmHg 49%
13:00 +34°C° 0 mm 2 mps 686 mmHg 45%
14:00 +32°C° 0.1 mm 2 mps 686 mmHg 47%
15:00 +33°C° 0.1 mm 3 mps 685 mmHg 50%
16:00 +33°C° 0.1 mm 3 mps 685 mmHg 52%
17:00 +30°C° 0.2 mm 2 mps 684 mmHg 60%
18:00 +28°C° 0.2 mm 1 mps 684 mmHg 67%
19:00 +25°C° 0.2 mm 1 mps 684 mmHg 74%
20:00 +25°C° 0.7 mm 1 mps 685 mmHg 79%
21:00 +24°C° 0.7 mm 1 mps 685 mmHg 83%
22:00 +23°C° 0.7 mm 1 mps 685 mmHg 88%
23:00 +23°C° 0.2 mm 1 mps 685 mmHg 89%

Day after tomorrow, 24 September, Thursday

Time Temperature Precipitation Wind Pressure Humidity
00:00 +21°C° 0.2 mm 2 mps 685 mmHg 89%
01:00 +21°C° 0.2 mm 2 mps 685 mmHg 90%
02:00 +21°C° 0 mm 2 mps 684 mmHg 91%
03:00 +20°C° 0 mm 2 mps 684 mmHg 91%
04:00 +20°C° 0 mm 2 mps 684 mmHg 91%
05:00 +20°C° 0 mm 2 mps 684 mmHg 92%
06:00 +21°C° 0 mm 2 mps 685 mmHg 92%
07:00 +21°C° 0 mm 2 mps 685 mmHg 93%
08:00 +24°C° 0 mm 2 mps 686 mmHg 85%
09:00 +26°C° 0 mm 2 mps 687 mmHg 78%
10:00 +28°C° 0 mm 1 mps 687 mmHg 70%
11:00 +29°C° 0.1 mm 1 mps 687 mmHg 65%
12:00 +31°C° 0.1 mm 1 mps 687 mmHg 60%
13:00 +32°C° 0.1 mm 1 mps 686 mmHg 54%
14:00 +30°C° 2.8 mm 1 mps 686 mmHg 62%
15:00 +29°C° 2.8 mm 1 mps 685 mmHg 69%
16:00 +27°C° 2.8 mm 1 mps 684 mmHg 77%
17:00 +26°C° 1.2 mm 1 mps 684 mmHg 81%
18:00 +24°C° 1.2 mm 1 mps 684 mmHg 85%
19:00 +23°C° 1.2 mm 1 mps 684 mmHg 89%
20:00 +23°C° 0 mm 1 mps 685 mmHg 89%
21:00 +22°C° 0 mm 1 mps 685 mmHg 90%
22:00 +22°C° 0 mm 1 mps 685 mmHg 90%
23:00 +22°C° 0 mm 1 mps 685 mmHg 89%

25 September, Friday

Time Temperature Precipitation Wind Pressure Humidity
00:00 +22°C° 0 mm 1 mps 685 mmHg 89%
01:00 +21°C° 0 mm 2 mps 685 mmHg 88%
02:00 +21°C° 0 mm 2 mps 684 mmHg 88%
03:00 +22°C° 0 mm 1 mps 684 mmHg 89%
04:00 +22°C° 0 mm 1 mps 684 mmHg 90%
05:00 +22°C° 0 mm 1 mps 684 mmHg 89%
06:00 +22°C° 0 mm 1 mps 685 mmHg 88%
07:00 +22°C° 0 mm 1 mps 685 mmHg 87%
08:00 +25°C° 0 mm 1 mps 686 mmHg 78%
09:00 +27°C° 0 mm 1 mps 687 mmHg 69%
10:00 +29°C° 0 mm 1 mps 687 mmHg 61%
11:00 +30°C° 0 mm 1 mps 687 mmHg 58%
12:00 +30°C° 0 mm 2 mps 686 mmHg 54%
13:00 +31°C° 0 mm 3 mps 686 mmHg 51%
14:00 +31°C° 0.9 mm 2 mps 685 mmHg 55%
15:00 +30°C° 0.9 mm 2 mps 685 mmHg 58%
16:00 +30°C° 0.9 mm 2 mps 684 mmHg 62%
17:00 +28°C° 1.2 mm 2 mps 684 mmHg 69%
18:00 +26°C° 1.2 mm 2 mps 684 mmHg 75%
19:00 +24°C° 1.2 mm 2 mps 684 mmHg 82%
20:00 +24°C° 0.2 mm 1 mps 684 mmHg 83%
21:00 +24°C° 0.2 mm 1 mps 685 mmHg 84%
22:00 +23°C° 0.2 mm 1 mps 685 mmHg 85%
23:00 +23°C° 0 mm 1 mps 685 mmHg 85%

26 September, Saturday

Time Temperature Precipitation Wind Pressure Humidity
00:00 +22°C° 0 mm 1 mps 685 mmHg 86%
01:00 +22°C° 0 mm 1 mps 684 mmHg 87%
02:00 +22°C° 0 mm 1 mps 684 mmHg 88%
03:00 +21°C° 0 mm 1 mps 684 mmHg 89%
04:00 +21°C° 0 mm 1 mps 684 mmHg 89%
05:00 +21°C° 0 mm 1 mps 684 mmHg 90%
06:00 +21°C° 0 mm 1 mps 684 mmHg 90%
07:00 +21°C° 0 mm 1 mps 684 mmHg 90%
08:00 +24°C° 0 mm 1 mps 685 mmHg 82%
09:00 +26°C° 0 mm 1 mps 686 mmHg 73%
10:00 +28°C° 0 mm 2 mps 686 mmHg 65%
11:00 +29°C° 0 mm 1 mps 686 mmHg 60%
12:00 +31°C° 0 mm 1 mps 685 mmHg 56%
13:00 +32°C° 0 mm 1 mps 685 mmHg 51%
14:00 +31°C° 0.9 mm 1 mps 684 mmHg 55%
15:00 +30°C° 0.9 mm 2 mps 684 mmHg 60%
16:00 +29°C° 0.9 mm 2 mps 683 mmHg 64%
17:00 +27°C° 0.7 mm 2 mps 683 mmHg 71%
18:00 +25°C° 0.7 mm 1 mps 683 mmHg 77%
19:00 +24°C° 0.7 mm 1 mps 683 mmHg 84%
20:00 +23°C° 1.5 mm 1 mps 683 mmHg 86%
21:00 +22°C° 1.5 mm 1 mps 684 mmHg 88%
22:00 +22°C° 1.5 mm 1 mps 684 mmHg 90%
23:00 +22°C° 0.2 mm 1 mps 684 mmHg 89%

27 September, Sunday

Time Temperature Precipitation Wind Pressure Humidity
00:00 +21°C° 0.2 mm 2 mps 684 mmHg 89%
01:00 +21°C° 0.2 mm 2 mps 684 mmHg 88%
02:00 +20°C° 0 mm 2 mps 684 mmHg 89%
03:00 +20°C° 0 mm 2 mps 683 mmHg 90%
04:00 +20°C° 0 mm 2 mps 683 mmHg 91%
05:00 +20°C° 0 mm 2 mps 683 mmHg 92%
06:00 +20°C° 0 mm 2 mps 684 mmHg 93%
07:00 +20°C° 0 mm 2 mps 684 mmHg 94%
08:00 +23°C° 0 mm 2 mps 685 mmHg 86%
09:00 +25°C° 0 mm 2 mps 685 mmHg 79%
10:00 +27°C° 0 mm 2 mps 686 mmHg 72%
11:00 +28°C° 0.1 mm 2 mps 686 mmHg 68%
12:00 +29°C° 0.1 mm 2 mps 685 mmHg 65%
13:00 +30°C° 0.1 mm 2 mps 685 mmHg 61%
14:00 +29°C° 0.9 mm 2 mps 684 mmHg 64%
15:00 +29°C° 0.9 mm 2 mps 683 mmHg 67%
16:00 +28°C° 0.9 mm 2 mps 683 mmHg 71%
17:00 +26°C° 0.6 mm 2 mps 683 mmHg 76%
18:00 +25°C° 0.6 mm 2 mps 683 mmHg 82%
19:00 +23°C° 0.6 mm 1 mps 683 mmHg 87%
20:00 +23°C° 0.2 mm 1 mps 683 mmHg 88%
21:00 +22°C° 0.2 mm 1 mps 684 mmHg 89%
22:00 +22°C° 0.2 mm 1 mps 684 mmHg 90%
23:00 +21°C° 0 mm 2 mps 684 mmHg 90%
Show more